Weather History for De Queen, AR

Change the Weather History Date:

Friday, April 27, 2012

  Actual Average Record
Temperature  
Mean Temperature 75 °F 64 °F  
Max Temperature 83 °F 77 °F 90 °F (1987)
Min Temperature 66 °F 52 °F 36 °F (1904)
Degree Days  
Heating Degree Days 0 3  
Month to date heating degree days 90 147  
Since 1 July heating degree days 2414 3015  
Cooling Degree Days 10 2  
Month to date cooling degree days 47 32  
Year to date cooling degree days 95 43  
Growing Degree Days 24 (Base 50)    
Moisture  
Dew Point 64 °F    
Average Humidity 72    
Maximum Humidity 93    
Minimum Humidity 51    
Precipitation  
Precipitation 0.00 in 0.17 in 2.90 in (1998)
Month to date precipitation 2.10 3.39  
Year to date precipitation 12.14 15.03  
Snow  
Snow 0.00 in - - ()
Month to date snowfall 0.0  
Since 1 July snowfall 2.3  
Snow Depth 0.00 in    
Sea Level Pressure  
Sea Level Pressure 29.83 in    
Wind  
Wind Speed 7 mph (ESE)    
Max Wind Speed 20 mph    
Max Gust Speed 29 mph    
Visibility 10 miles    
Events      
T = Trace of Precipitation, MM = Missing Value Source: NWS Daily Summary

Daily Weather History Graph

Daily Weather History Graph

Search for Another Location

Airport:

Trip Planner

Search our weather history database for the weather conditions in past years. The results will help you decide how hot, cold, wet, or windy it might be!

Date:

Astronomy

Apr. 27, 2012 Rise Set
Actual Time 6:32 AM CDT 7:58 PM CDT
Civil Twilight 6:05 AM CDT 8:25 PM CDT
Nautical Twilight 5:33 AM CDT 8:57 PM CDT
Astronomical Twilight 5:00 AM CDT 9:30 PM CDT
Moon 11:14 AM CDT (4/27) 12:42 AM CDT (4/27)
Length of Visible Light 14h 19m
Length of Day
13h 26m
Waxing Crescent, 33% of the Moon is Illuminated
Apr 27
Waxing Crescent
Apr 29
First Quarter
May 5
Full
May 12
Last Quarter
May 20
New

Hourly Weather History & Observations

Time (CDT) Temp. Heat Index Dew Point Humidity Pressure Visibility Wind Dir Wind Speed Gust Speed Precip Events Conditions
12:53 AM 70.0 °F - 66.9 °F 90% 29.84 in 9.0 mi NE 3.5 mph - N/A   Partly Cloudy
1:53 AM 68.0 °F - 66.0 °F 93% 29.83 in 7.0 mi Calm Calm - N/A   Clear
2:53 AM 69.1 °F - 66.0 °F 90% 29.81 in 9.0 mi Calm Calm - N/A   Clear
3:53 AM 70.0 °F - 66.0 °F 87% 29.81 in 10.0 mi East 4.6 mph - N/A   Clear
4:53 AM 69.1 °F - 64.9 °F 87% 29.83 in 10.0 mi ESE 3.5 mph - N/A   Clear
5:53 AM 66.9 °F - 64.9 °F 93% 29.84 in 9.0 mi East 3.5 mph - N/A   Clear
6:41 AM 66.2 °F - 64.4 °F 94% 29.87 in 9.0 mi Calm Calm - N/A   Mostly Cloudy
6:49 AM 66.2 °F - 64.4 °F 94% 29.87 in 8.0 mi East 3.5 mph - N/A   Scattered Clouds
6:53 AM 66.9 °F - 64.0 °F 90% 29.86 in 8.0 mi East 4.6 mph - N/A   Scattered Clouds
7:53 AM 68.0 °F - 64.9 °F 90% 29.88 in 8.0 mi ENE 3.5 mph - N/A   Clear
8:32 AM 69.8 °F - 64.4 °F 83% 29.90 in 10.0 mi ESE 5.8 mph - N/A   Mostly Cloudy
8:53 AM 70.0 °F - 64.9 °F 84% 29.89 in 10.0 mi ESE 5.8 mph - N/A   Overcast
9:03 AM 69.8 °F - 64.4 °F 83% 29.90 in 10.0 mi Variable 5.8 mph - N/A   Mostly Cloudy
9:29 AM 71.6 °F - 64.4 °F 78% 29.89 in 10.0 mi ESE 10.4 mph - N/A   Scattered Clouds
9:53 AM 72.0 °F - 64.0 °F 76% 29.87 in 10.0 mi East 12.7 mph 19.6 mph N/A   Partly Cloudy
10:53 AM 73.0 °F - 64.9 °F 76% 29.88 in 10.0 mi ESE 8.1 mph - N/A   Clear
11:53 AM 73.9 °F - 64.0 °F 71% 29.86 in 10.0 mi SE 8.1 mph - N/A   Clear
12:53 PM 77.0 °F - 64.0 °F 64% 29.83 in 10.0 mi ESE 11.5 mph 20.7 mph N/A   Clear
1:53 PM 80.1 °F 81.7 °F 64.0 °F 58% 29.81 in 10.0 mi ESE 10.4 mph 23.0 mph N/A   Partly Cloudy
2:53 PM 81.0 °F 82.2 °F 63.0 °F 54% 29.78 in 10.0 mi SE 12.7 mph 23.0 mph N/A   Clear
3:53 PM 82.0 °F 83.4 °F 64.0 °F 54% 29.75 in 10.0 mi SE 11.5 mph 24.2 mph N/A   Clear
4:53 PM 82.0 °F 83.1 °F 63.0 °F 52% 29.75 in 10.0 mi SSE 13.8 mph 19.6 mph N/A   Clear
5:53 PM 82.0 °F 83.1 °F 63.0 °F 52% 29.74 in 10.0 mi SE 11.5 mph 18.4 mph N/A   Partly Cloudy
6:53 PM 80.1 °F 81.5 °F 63.0 °F 56% 29.74 in 10.0 mi Variable 6.9 mph 17.3 mph N/A   Clear
7:53 PM 77.0 °F - 63.0 °F 62% 29.75 in 10.0 mi ESE 4.6 mph - N/A   Clear
8:53 PM 75.0 °F - 63.0 °F 66% 29.77 in 10.0 mi SE 5.8 mph - N/A   Clear
9:53 PM 73.9 °F - 63.0 °F 68% 29.78 in 10.0 mi ESE 6.9 mph - N/A   Clear
10:53 PM 72.0 °F - 63.0 °F 73% 29.81 in 10.0 mi Calm Calm - N/A   Overcast
11:53 PM 71.1 °F - 64.0 °F 78% 29.81 in 10.0 mi ENE 3.5 mph - N/A   Mostly Cloudy